VIR19 EGCC-KFLL

Flight info

Callsign VIR19
Flight time N/A
Altitude 34000
Route SANBA N859 HON UN859 CPT Y321 PEPIS Q41 SAM N63 LELNA/N0495F330 DCT REGHI/M085F340 UN480 ETIKI DCT 47N015W 46N020W 43N030W 41N040W 40N050W/M085F360 40N060W DCT SLATN DCT SAUCR/M085F380 DCT TROUT/N0492F380 DCT CUUDA CUUDA3
Aircraft A35K/H-SDE2E3GHIJ3J4J5LM1ORWXY/LB1D1

Departure

Time 2026-05-03 20:41
Airport Manchester Airport (EGCC)

Arrival

Time N/A
Airport Fort Lauderdale Hollywood International Airport (KFLL)
Time Latitude Longitude Altitude Speed Heading
2026-05-03 20:15 53.36576 -2.28363 261 ft 0 kts 315°
2026-05-03 20:27 53.36575 -2.28362 261 ft 2 kts 315°
2026-05-03 20:27 53.36557 -2.28332 234 ft 4 kts 315°
2026-05-03 20:27 53.36538 -2.28300 270 ft 4 kts 315°
2026-05-03 20:27 53.36522 -2.28274 264 ft 4 kts 308°
2026-05-03 20:28 53.36519 -2.28244 267 ft 4 kts 234°
2026-05-03 20:28 53.36524 -2.28232 266 ft 4 kts 224°
2026-05-03 20:28 53.36505 -2.28264 264 ft 4 kts 224°
2026-05-03 20:28 53.36485 -2.28296 261 ft 4 kts 224°
2026-05-03 20:29 53.36467 -2.28326 261 ft 2 kts 224°
2026-05-03 20:29 53.36465 -2.28329 261 ft 0 kts 224°
2026-05-03 20:31 53.36457 -2.28342 261 ft 5 kts 224°
2026-05-03 20:32 53.36423 -2.28398 261 ft 10 kts 223°
2026-05-03 20:32 53.36352 -2.28448 261 ft 12 kts 167°
2026-05-03 20:32 53.36285 -2.28366 261 ft 13 kts 137°
2026-05-03 20:32 53.36220 -2.28257 261 ft 14 kts 134°
2026-05-03 20:33 53.36152 -2.28142 261 ft 14 kts 137°
2026-05-03 20:33 53.36077 -2.28024 261 ft 15 kts 137°
2026-05-03 20:33 53.35996 -2.27907 261 ft 16 kts 143°
2026-05-03 20:33 53.35898 -2.27852 261 ft 11 kts 178°
2026-05-03 20:34 53.35807 -2.27860 256 ft 16 kts 185°
2026-05-03 20:34 53.35682 -2.27883 249 ft 20 kts 189°
2026-05-03 20:34 53.35579 -2.27994 243 ft 19 kts 226°
2026-05-03 20:34 53.35463 -2.28140 240 ft 21 kts 199°
2026-05-03 20:35 53.35340 -2.28186 240 ft 18 kts 200°
2026-05-03 20:35 53.35229 -2.28311 238 ft 20 kts 226°
2026-05-03 20:35 53.35131 -2.28505 235 ft 23 kts 230°
2026-05-03 20:35 53.35030 -2.28708 238 ft 23 kts 230°
2026-05-03 20:36 53.34916 -2.28912 232 ft 25 kts 225°
2026-05-03 20:36 53.34796 -2.29138 226 ft 26 kts 230°
2026-05-03 20:36 53.34710 -2.29292 226 ft 7 kts 215°
2026-05-03 20:36 53.34697 -2.29304 221 ft 0 kts 208°
2026-05-03 20:39 53.34696 -2.29305 216 ft 1 kts 208°
2026-05-03 20:39 53.34622 -2.29338 223 ft 15 kts 180°
2026-05-03 20:39 53.34552 -2.29249 226 ft 13 kts 95°
2026-05-03 20:40 53.34593 -2.29121 227 ft 13 kts 51°
2026-05-03 20:40 53.34705 -2.28884 227 ft 57 kts 51°
2026-05-03 20:40 53.35121 -2.28023 239 ft 131 kts 51°
2026-05-03 20:40 53.35822 -2.26552 335 ft 186 kts 52°
2026-05-03 20:41 53.36519 -2.24708 1179 ft 196 kts 67°
2026-05-03 20:41 53.36623 -2.22357 1799 ft 222 kts 102°
2026-05-03 20:41 53.35920 -2.19891 2146 ft 242 kts 121°
2026-05-03 20:41 53.34718 -2.17881 2652 ft 255 kts 145°
2026-05-03 20:42 53.33024 -2.16922 3237 ft 264 kts 174°
2026-05-03 20:42 53.31181 -2.17055 3891 ft 267 kts 184°
2026-05-03 20:42 53.29315 -2.17412 4481 ft 270 kts 185°
2026-05-03 20:42 53.27435 -2.17768 4953 ft 273 kts 185°
2026-05-03 20:43 53.25543 -2.18101 5389 ft 274 kts 185°
2026-05-03 20:43 53.23646 -2.18418 5820 ft 274 kts 185°
2026-05-03 20:43 53.21746 -2.18727 6260 ft 275 kts 185°
2026-05-03 20:43 53.19842 -2.19033 6679 ft 275 kts 185°
2026-05-03 20:44 53.17937 -2.19341 7097 ft 276 kts 186°
2026-05-03 20:44 53.16021 -2.19639 7516 ft 277 kts 185°
2026-05-03 20:44 53.14086 -2.19534 7931 ft 279 kts 169°
2026-05-03 20:44 53.12212 -2.18689 8362 ft 281 kts 162°
2026-05-03 20:45 53.10378 -2.17530 8818 ft 283 kts 158°
2026-05-03 20:45 53.08560 -2.16218 9263 ft 285 kts 157°
2026-05-03 20:45 53.06768 -2.14878 9709 ft 287 kts 157°
2026-05-03 20:45 53.04935 -2.13517 10129 ft 291 kts 158°
2026-05-03 20:46 53.03047 -2.12152 10541 ft 302 kts 158°
2026-05-03 20:46 53.01078 -2.10757 10953 ft 313 kts 159°
2026-05-03 20:46 52.95033 -2.06586 12160 ft 342 kts 159°
2026-05-03 20:46 52.85791 -2.00257 13915 ft 375 kts 159°
2026-05-03 20:47 52.75806 -1.93449 15588 ft 400 kts 159°
2026-05-03 20:47 52.65366 -1.86361 17334 ft 409 kts 159°
2026-05-03 20:47 52.54725 -1.79173 19071 ft 418 kts 159°
2026-05-03 20:47 52.43866 -1.71877 20756 ft 427 kts 159°
2026-05-03 20:48 52.32656 -1.64500 22578 ft 437 kts 162°
2026-05-03 20:48 52.20909 -1.58607 24294 ft 444 kts 165°
2026-05-03 20:48 52.08997 -1.52528 25860 ft 453 kts 164°
2026-05-03 20:48 51.97025 -1.46338 27447 ft 459 kts 165°
2026-05-03 20:49 51.84744 -1.40039 28887 ft 466 kts 165°
2026-05-03 20:49 51.72492 -1.33773 30507 ft 461 kts 165°
2026-05-03 20:49 51.60258 -1.27567 31721 ft 460 kts 165°
2026-05-03 20:49 51.47955 -1.22442 32689 ft 456 kts 178°
2026-05-03 20:50 51.35310 -1.23007 33668 ft 453 kts 184°
2026-05-03 20:50 51.22711 -1.24144 34372 ft 454 kts 185°
2026-05-03 20:50 51.10355 -1.28212 34903 ft 453 kts 195°
2026-05-03 20:50 50.98131 -1.33430 35410 ft 455 kts 197°
2026-05-03 20:51 50.86576 -1.41576 35834 ft 455 kts 207°
2026-05-03 20:51 50.75264 -1.50658 36177 ft 457 kts 207°
2026-05-03 20:51 50.63880 -1.59686 36506 ft 458 kts 207°
2026-05-03 20:51 50.52466 -1.68652 36816 ft 458 kts 207°
2026-05-03 20:52 50.41056 -1.77581 37058 ft 459 kts 207°
2026-05-03 20:52 50.29613 -1.86487 37269 ft 460 kts 207°
2026-05-03 20:52 50.18115 -1.95389 37460 ft 461 kts 206°
2026-05-03 20:52 50.06593 -2.04260 37644 ft 461 kts 206°
2026-05-03 20:53 49.96730 -2.16650 37726 ft 463 kts 236°
2026-05-03 20:53 49.90984 -2.34597 37830 ft 466 kts 244°
2026-05-03 20:53 49.85536 -2.52903 37963 ft 466 kts 243°
2026-05-03 20:53 49.80000 -2.71067 38070 ft 467 kts 243°
2026-05-03 20:54 49.76300 -2.83126 38107 ft 468 kts 243°
2026-05-03 20:54 49.57451 -3.43696 38327 ft 470 kts 243°
2026-05-03 20:55 49.46008 -3.79757 38383 ft 472 kts 243°
2026-05-03 20:55 49.34370 -4.15906 38442 ft 474 kts 243°
2026-05-03 20:56 49.24558 -4.45983 38543 ft 474 kts 243°
2026-05-03 20:56 49.12631 -4.82071 38583 ft 475 kts 242°
2026-05-03 20:57 49.00600 -5.17960 38662 ft 475 kts 242°
2026-05-03 20:57 48.88422 -5.53783 38685 ft 476 kts 242°
2026-05-03 20:58 48.76116 -5.89479 38693 ft 477 kts 242°
2026-05-03 20:58 48.63663 -6.25106 38678 ft 480 kts 241°
2026-05-03 20:59 48.51065 -6.60658 38652 ft 482 kts 241°
2026-05-03 20:59 48.38332 -6.96105 38683 ft 483 kts 241°
2026-05-03 21:00 48.27626 -7.25542 38746 ft 482 kts 240°
2026-05-03 21:00 48.12454 -7.66705 38790 ft 482 kts 240°
2026-05-03 21:01 48.00432 -8.02505 38758 ft 484 kts 259°
2026-05-03 21:01 47.99981 -8.22595 38780 ft 484 kts 270°
2026-05-03 21:01 48.00071 -8.42383 38788 ft 484 kts 269°
2026-05-03 21:02 47.99069 -8.82297 38944 ft 480 kts 259°
2026-05-03 21:02 47.93869 -9.21400 38968 ft 480 kts 258°
2026-05-03 21:03 47.88557 -9.60380 38966 ft 480 kts 258°
2026-05-03 21:03 47.83105 -9.99325 38974 ft 480 kts 258°
2026-05-03 21:04 47.77518 -10.38206 38984 ft 481 kts 259°
2026-05-03 21:04 47.71798 -10.77050 38992 ft 481 kts 259°
2026-05-03 21:05 47.65944 -11.15782 39009 ft 481 kts 258°
2026-05-03 21:05 47.59943 -11.54545 39020 ft 482 kts 259°
2026-05-03 21:06 47.53855 -11.92985 39031 ft 483 kts 259°
2026-05-03 21:06 47.47582 -12.31650 39048 ft 484 kts 259°
2026-05-03 21:07 47.41163 -12.70312 39061 ft 485 kts 258°
2026-05-03 21:07 47.34607 -13.08944 39072 ft 486 kts 258°
2026-05-03 21:08 47.27887 -13.47666 39086 ft 487 kts 258°
2026-05-03 21:08 47.21067 -13.86116 39102 ft 489 kts 258°
2026-05-03 21:09 47.14045 -14.24879 39112 ft 490 kts 258°
2026-05-03 21:09 47.06876 -14.63622 39129 ft 491 kts 257°
2026-05-03 21:10 46.99597 -15.02181 39139 ft 491 kts 258°
2026-05-03 21:10 46.92777 -15.40904 39151 ft 490 kts 258°
2026-05-03 21:11 46.85853 -15.79195 39163 ft 490 kts 258°
2026-05-03 21:11 46.78726 -16.17805 39177 ft 488 kts 258°
2026-05-03 21:12 46.71572 -16.55776 39185 ft 487 kts 258°
2026-05-03 21:12 46.64271 -16.93760 39196 ft 487 kts 258°
2026-05-03 21:13 46.56842 -17.31645 39203 ft 486 kts 258°
2026-05-03 21:13 46.49313 -17.69310 39216 ft 486 kts 258°
2026-05-03 21:14 46.41664 -18.06851 39228 ft 485 kts 257°
2026-05-03 21:14 46.33896 -18.44274 39236 ft 484 kts 257°
2026-05-03 21:15 46.26027 -18.81486 39241 ft 482 kts 257°
2026-05-03 21:15 46.18075 -19.18423 39252 ft 480 kts 257°
2026-05-03 21:16 46.10082 -19.54902 39255 ft 479 kts 257°
2026-05-03 21:16 46.01928 -19.91474 39257 ft 479 kts 256°
2026-05-03 21:17 45.94748 -20.21652 39267 ft 479 kts 255°
2026-05-03 21:17 45.84348 -20.63649 39262 ft 477 kts 255°
2026-05-03 21:18 45.75343 -20.99457 39271 ft 475 kts 255°
2026-05-03 21:18 45.66275 -21.34966 39279 ft 474 kts 254°
2026-05-03 21:19 45.57166 -21.70092 39279 ft 473 kts 254°
2026-05-03 21:19 45.47920 -22.05219 39297 ft 471 kts 253°
2026-05-03 21:20 45.38603 -22.40092 39294 ft 469 kts 253°
2026-05-03 21:20 45.29201 -22.74779 39300 ft 468 kts 253°
2026-05-03 21:21 45.19736 -23.09196 39307 ft 468 kts 252°
2026-05-03 21:21 45.10161 -23.43526 39312 ft 467 kts 252°
2026-05-03 21:22 45.00499 -23.77681 39319 ft 467 kts 251°
2026-05-03 21:22 44.90818 -24.11437 39325 ft 467 kts 251°
2026-05-03 21:23 44.80969 -24.45318 39336 ft 466 kts 251°
2026-05-03 21:23 44.71046 -24.78992 39344 ft 466 kts 250°
2026-05-03 21:24 44.61029 -25.12535 39351 ft 465 kts 250°
2026-05-03 21:24 44.50916 -25.45956 39360 ft 465 kts 249°
2026-05-03 21:25 44.40721 -25.79213 39367 ft 465 kts 249°
2026-05-03 21:25 44.30424 -26.12373 39378 ft 464 kts 248°
2026-05-03 21:26 44.20028 -26.45425 39377 ft 465 kts 248°
2026-05-03 21:26 44.09539 -26.78355 39385 ft 465 kts 247°
2026-05-03 21:27 43.99027 -27.10949 39390 ft 465 kts 247°
2026-05-03 21:27 43.88343 -27.43667 39390 ft 465 kts 246°
2026-05-03 21:28 43.77556 -27.76301 39390 ft 466 kts 246°
2026-05-03 21:28 43.66660 -28.08861 39395 ft 466 kts 246°
2026-05-03 21:29 43.55667 -28.41320 39396 ft 467 kts 245°
2026-05-03 21:29 43.44528 -28.73820 39401 ft 469 kts 245°
2026-05-03 21:30 43.33278 -29.06255 39400 ft 470 kts 244°
2026-05-03 21:30 43.21992 -29.38412 39403 ft 471 kts 244°
2026-05-03 21:31 43.10510 -29.70746 39401 ft 473 kts 244°
2026-05-03 21:31 42.99567 -30.03357 39401 ft 473 kts 256°
2026-05-03 21:32 42.94117 -30.38530 39399 ft 473 kts 258°
2026-05-03 21:32 42.88618 -30.73669 39398 ft 474 kts 258°
2026-05-03 21:33 42.83007 -31.08788 39395 ft 474 kts 258°
2026-05-03 21:33 42.77295 -31.43804 39392 ft 474 kts 258°
2026-05-03 21:34 42.71469 -31.78800 39393 ft 474 kts 257°
2026-05-03 21:34 42.65527 -32.13784 39387 ft 474 kts 257°
2026-05-03 21:35 42.59534 -32.48391 39381 ft 474 kts 257°
2026-05-03 21:35 42.53388 -32.83202 39381 ft 474 kts 257°
2026-05-03 21:36 42.47135 -33.17950 39376 ft 475 kts 257°
2026-05-03 21:36 42.40767 -33.52689 39370 ft 475 kts 257°
2026-05-03 21:37 42.34297 -33.87340 39365 ft 475 kts 257°
2026-05-03 21:37 42.27768 -34.21683 39364 ft 474 kts 257°
2026-05-03 21:38 42.21100 -34.56146 39357 ft 474 kts 257°
2026-05-03 21:38 42.14346 -34.90448 39351 ft 472 kts 257°
2026-05-03 21:39 42.07510 -35.24577 39347 ft 471 kts 256°
2026-05-03 21:39 42.00592 -35.58542 39341 ft 471 kts 256°
2026-05-03 21:40 41.93621 -35.92211 39350 ft 470 kts 256°
2026-05-03 21:40 41.86489 -36.26097 39316 ft 471 kts 256°
2026-05-03 21:41 41.79245 -36.59965 39312 ft 472 kts 256°
2026-05-03 21:41 41.71883 -36.93845 39312 ft 474 kts 256°
2026-05-03 21:42 41.64458 -37.27479 39311 ft 474 kts 256°
2026-05-03 21:42 41.56880 -37.61282 39299 ft 476 kts 257°
2026-05-03 21:43 41.49167 -37.95159 39301 ft 477 kts 257°
2026-05-03 21:43 41.41380 -38.28860 39293 ft 477 kts 258°
2026-05-03 21:44 41.34800 -38.56933 39287 ft 477 kts 258°
2026-05-03 21:44 41.26817 -38.90546 39280 ft 476 kts 259°
2026-05-03 21:45 41.18755 -39.23996 39275 ft 473 kts 259°
2026-05-03 21:45 41.10648 -39.57157 39276 ft 471 kts 259°
2026-05-03 21:46 41.02481 -39.90099 39267 ft 469 kts 259°
2026-05-03 21:46 40.99620 -40.06701 39260 ft 455 kts 272°
2026-05-03 21:46 40.98674 -40.23104 39260 ft 452 kts 273°
2026-05-03 21:47 40.96735 -40.56261 39253 ft 450 kts 273°
2026-05-03 21:47 40.94687 -40.89265 39248 ft 450 kts 273°
2026-05-03 21:48 40.92546 -41.22233 39218 ft 450 kts 273°
2026-05-03 21:48 40.90314 -41.55128 39235 ft 448 kts 273°
2026-05-03 21:49 40.88044 -41.87893 39227 ft 446 kts 275°
2026-05-03 21:49 40.86125 -42.20311 39224 ft 441 kts 275°
2026-05-03 21:50 40.84066 -42.52640 39216 ft 441 kts 276°
2026-05-03 21:50 40.81931 -42.84736 39212 ft 441 kts 275°
2026-05-03 21:51 40.79676 -43.17281 39204 ft 446 kts 275°
2026-05-03 21:51 40.77309 -43.50045 39197 ft 449 kts 274°
2026-05-03 21:52 40.74857 -43.82671 39197 ft 445 kts 274°
2026-05-03 21:52 40.72329 -44.15127 39180 ft 445 kts 273°
2026-05-03 21:53 40.69715 -44.47486 39178 ft 444 kts 272°
2026-05-03 21:53 40.67023 -44.79663 39152 ft 444 kts 271°
2026-05-03 21:54 40.64243 -45.11800 39165 ft 442 kts 271°
2026-05-03 21:54 40.61369 -45.43943 39157 ft 439 kts 270°
2026-05-03 21:55 40.58430 -45.75843 39154 ft 438 kts 270°
2026-05-03 21:55 40.55411 -46.07615 39146 ft 437 kts 269°
2026-05-03 21:56 40.52328 -46.39130 39127 ft 437 kts 269°
2026-05-03 21:56 40.49151 -46.70694 39129 ft 436 kts 268°
2026-05-03 21:57 40.45892 -47.02193 39123 ft 434 kts 267°
2026-05-03 21:57 40.42561 -47.33539 39117 ft 434 kts 267°
2026-05-03 21:58 40.39134 -47.64946 39110 ft 433 kts 266°
2026-05-03 21:58 40.35634 -47.96224 39105 ft 433 kts 266°
2026-05-03 21:59 40.32051 -48.27448 39099 ft 432 kts 266°
2026-05-03 21:59 40.28394 -48.58568 39086 ft 432 kts 265°
2026-05-03 22:00 40.24650 -48.89687 39083 ft 433 kts 265°
2026-05-03 22:00 40.20845 -49.20582 39071 ft 434 kts 264°
2026-05-03 22:01 40.16928 -49.51681 39060 ft 433 kts 264°
2026-05-03 22:01 40.12932 -49.82711 39056 ft 432 kts 264°
2026-05-03 22:02 40.08877 -50.13531 39045 ft 430 kts 264°
2026-05-03 22:02 40.04750 -50.44235 39041 ft 427 kts 263°
2026-05-03 22:03 40.00563 -50.74762 39031 ft 428 kts 263°
2026-05-03 22:03 39.96296 -51.05241 39026 ft 427 kts 263°
2026-05-03 22:04 39.91949 -51.35688 39018 ft 427 kts 262°
2026-05-03 22:04 39.87562 -51.65825 39009 ft 426 kts 262°
2026-05-03 22:05 39.83071 -51.96095 39004 ft 426 kts 262°
2026-05-03 22:05 39.78513 -52.26247 38999 ft 423 kts 262°
2026-05-03 22:06 39.73891 -52.56276 38991 ft 424 kts 261°
2026-05-03 22:06 39.69192 -52.86261 38981 ft 423 kts 261°
2026-05-03 22:07 39.64464 -53.15907 38973 ft 418 kts 261°
2026-05-03 22:07 39.59694 -53.45308 38964 ft 416 kts 261°
2026-05-03 22:08 39.54920 -53.74240 38945 ft 410 kts 260°
2026-05-03 22:08 39.50095 -54.03026 38935 ft 404 kts 260°
2026-05-03 22:09 39.45263 -54.31388 38916 ft 403 kts 259°
2026-05-03 22:10 39.37928 -54.73628 38892 ft 401 kts 258°
2026-05-03 22:10 39.32960 -55.01694 38891 ft 401 kts 258°
2026-05-03 22:11 39.27939 -55.29646 38871 ft 400 kts 257°
2026-05-03 22:11 39.22853 -55.57545 38857 ft 399 kts 257°
2026-05-03 22:12 39.17705 -55.85385 38837 ft 400 kts 256°
2026-05-03 22:12 39.12483 -56.13211 38814 ft 399 kts 256°
2026-05-03 22:13 39.07240 -56.40782 38826 ft 398 kts 256°
2026-05-03 22:13 39.01910 -56.68414 38810 ft 397 kts 255°
2026-05-03 22:14 38.96521 -56.95973 38793 ft 396 kts 255°
2026-05-03 22:14 38.91086 -57.23390 38775 ft 394 kts 254°
2026-05-03 22:15 38.85607 -57.50678 38776 ft 394 kts 253°
2026-05-03 22:15 38.80064 -57.77915 38767 ft 394 kts 253°
2026-05-03 22:16 38.74508 -58.04872 38761 ft 392 kts 253°
2026-05-03 22:16 38.68888 -58.31804 38764 ft 389 kts 253°
2026-05-03 22:17 38.63257 -58.58453 38753 ft 385 kts 253°
2026-05-03 22:17 38.57602 -58.84877 38763 ft 385 kts 253°
2026-05-03 22:18 38.51900 -59.11222 38766 ft 383 kts 252°
2026-05-03 22:18 38.46181 -59.37321 38776 ft 381 kts 252°
2026-05-03 22:19 38.40411 -59.63351 38787 ft 380 kts 252°
2026-05-03 22:19 38.34622 -59.89169 38827 ft 378 kts 252°
2026-05-03 22:20 38.28824 -60.14740 38786 ft 375 kts 252°
2026-05-03 22:20 38.22998 -60.40148 38781 ft 373 kts 252°
2026-05-03 22:21 38.17182 -60.65244 38793 ft 372 kts 252°
2026-05-03 22:21 38.11300 -60.90346 38801 ft 369 kts 252°
2026-05-03 22:22 38.05400 -61.15264 38804 ft 367 kts 252°
2026-05-03 22:22 37.99475 -61.40027 38812 ft 365 kts 252°
2026-05-03 22:23 37.93524 -61.64638 38820 ft 364 kts 252°
2026-05-03 22:23 37.87544 -61.89124 38829 ft 364 kts 252°
2026-05-03 22:24 37.81528 -62.13511 38837 ft 362 kts 252°
2026-05-03 22:24 37.75522 -62.37619 38845 ft 360 kts 252°
2026-05-03 22:25 37.69465 -62.61694 38853 ft 359 kts 252°
2026-05-03 22:25 37.63368 -62.85694 38837 ft 359 kts 252°
2026-05-03 22:26 37.57253 -63.09534 38870 ft 357 kts 252°
2026-05-03 22:26 37.51084 -63.33359 38876 ft 358 kts 252°
2026-05-03 22:27 37.44830 -63.57289 38889 ft 362 kts 251°
2026-05-03 22:27 37.38547 -63.81103 38896 ft 359 kts 252°
2026-05-03 22:28 37.32201 -64.04942 38928 ft 360 kts 252°
2026-05-03 22:28 37.25809 -64.28727 38913 ft 356 kts 252°
2026-05-03 22:29 37.19381 -64.52432 38919 ft 361 kts 251°
2026-05-03 22:29 37.12958 -64.75904 38931 ft 353 kts 252°
2026-05-03 22:30 37.06528 -64.99201 38970 ft 354 kts 251°
2026-05-03 22:30 37.00073 -65.22380 38947 ft 351 kts 252°
2026-05-03 22:31 36.93566 -65.45547 38935 ft 354 kts 252°
2026-05-03 22:31 36.88156 -65.64655 38967 ft 351 kts 252°
2026-05-03 22:32 36.80520 -65.91399 38952 ft 350 kts 252°
2026-05-03 22:32 36.73928 -66.14281 38974 ft 351 kts 251°
2026-05-03 22:33 36.68398 -66.33328 38979 ft 352 kts 251°
2026-05-03 22:33 36.61739 -66.56090 38988 ft 346 kts 251°
2026-05-03 22:34 36.55088 -66.78642 38926 ft 350 kts 251°
2026-05-03 22:34 36.51759 -66.89856 39046 ft 343 kts 251°
2026-05-03 22:34 36.48417 -67.01082 39001 ft 346 kts 251°
2026-05-03 22:35 36.41703 -67.23480 39026 ft 347 kts 251°
2026-05-03 22:35 36.34970 -67.45769 39013 ft 343 kts 251°
2026-05-03 22:36 36.28179 -67.68074 39018 ft 347 kts 251°
2026-05-03 22:36 36.21311 -67.90454 39021 ft 347 kts 251°
2026-05-03 22:37 36.14449 -68.12642 39026 ft 347 kts 251°
2026-05-03 22:37 36.07548 -68.34785 39037 ft 344 kts 251°
2026-05-03 22:38 36.00614 -68.56864 39040 ft 345 kts 251°
2026-05-03 22:38 35.93655 -68.78857 39045 ft 342 kts 250°
2026-05-03 22:39 35.86669 -69.00770 39053 ft 343 kts 250°
2026-05-03 22:39 35.79674 -69.22548 39063 ft 341 kts 250°
2026-05-03 22:40 35.72631 -69.44317 39064 ft 342 kts 250°
2026-05-03 22:40 35.65602 -69.65884 39070 ft 340 kts 250°
2026-05-03 22:41 35.58526 -69.87439 39099 ft 340 kts 250°
2026-05-03 22:41 35.51368 -70.09087 39088 ft 339 kts 250°
2026-05-03 22:42 35.44215 -70.30568 39090 ft 341 kts 249°
2026-05-03 22:42 35.37004 -70.52070 39077 ft 340 kts 249°
2026-05-03 22:43 35.29770 -70.73486 39095 ft 340 kts 249°
2026-05-03 22:43 35.22538 -70.94751 39110 ft 342 kts 249°
2026-05-03 22:44 35.15231 -71.16086 39113 ft 340 kts 249°
2026-05-03 22:44 35.07875 -71.37419 39102 ft 340 kts 249°
2026-05-03 22:45 35.00511 -71.58628 39123 ft 339 kts 248°
2026-05-03 22:45 34.93108 -71.79803 39122 ft 339 kts 248°
2026-05-03 22:46 34.85660 -72.00968 39125 ft 340 kts 248°
2026-05-03 22:46 34.78164 -72.22121 39124 ft 340 kts 248°
2026-05-03 22:47 34.69086 -72.42110 39133 ft 350 kts 233°
2026-05-03 22:47 34.54709 -72.58335 39138 ft 352 kts 231°
2026-05-03 22:48 34.40353 -72.74574 39138 ft 352 kts 231°
2026-05-03 22:48 34.25999 -72.90724 39139 ft 353 kts 230°
2026-05-03 22:49 34.11601 -73.06846 39138 ft 353 kts 230°
2026-05-03 22:49 33.97162 -73.22934 39138 ft 353 kts 230°
2026-05-03 22:50 33.82701 -73.38971 39138 ft 353 kts 230°
2026-05-03 22:50 33.68210 -73.54960 39140 ft 354 kts 229°
2026-05-03 22:51 33.53677 -73.70922 39140 ft 354 kts 229°
2026-05-03 22:51 33.39214 -73.86729 39134 ft 354 kts 229°
2026-05-03 22:52 33.24617 -74.02609 39153 ft 355 kts 229°
2026-05-03 22:52 33.09941 -74.18499 39147 ft 356 kts 228°
2026-05-03 22:53 32.95243 -74.34338 39103 ft 356 kts 228°
2026-05-03 22:53 32.80473 -74.50180 39143 ft 357 kts 228°
2026-05-03 22:54 32.65696 -74.65958 39147 ft 358 kts 227°
2026-05-03 22:54 32.50928 -74.81651 39149 ft 358 kts 227°
2026-05-03 22:55 32.40292 -74.92907 39030 ft 361 kts 227°
2026-05-03 22:55 32.31971 -75.01686 39147 ft 358 kts 227°
2026-05-03 22:56 32.17081 -75.17350 39147 ft 360 kts 227°
2026-05-03 22:56 32.02110 -75.33021 39105 ft 360 kts 227°
2026-05-03 22:57 31.87023 -75.48742 39143 ft 362 kts 227°
2026-05-03 22:57 31.71918 -75.64411 39143 ft 363 kts 226°
2026-05-03 22:58 31.56723 -75.80100 39149 ft 363 kts 226°
2026-05-03 22:58 31.41465 -75.95783 39140 ft 365 kts 226°
2026-05-03 22:59 31.26248 -76.11358 39140 ft 367 kts 226°